Hourly Data Report for December 27, 2017

VICTORIA UNIVERSITY CS
BRITISH COLUMBIA

48°27'25.200" N
123°18'16.600" W
60.10 m
1018598
71783
WYJ

Download Data

Hourly Data (December 2017)
Hourly Data Report for December 27, 2017
TIME
LST
Temp Definition
°C
Dew Point Definition
°C
Rel Hum Definition
%
Precip. Amount Definition
mm

Wind Dir Definition
10's deg

Wind Spd Definition
km/h
Visibility Definition
km
Stn Press Definition
kPa
Hmdx Definition


Wind Chill Definition


Weather Definition


00:00 1.9 0.1 88 0.0 35 1   101.70     LegendNANA
01:00 1.3 0.1 92 0.0 35 2   101.67     LegendNANA
02:00 2.4 0.6 88 0.0 2 2   101.67     LegendNANA
03:00 2.8 1.0 88 0.0 1 4   101.71     LegendNANA
04:00 2.8 0.8 87 0.0 1 4   101.74     LegendNANA
05:00 2.8 0.3 84 0.0 4 1   101.71     LegendNANA
06:00 2.7 0.1 83 0.0 9 4   101.69     LegendNANA
07:00 2.6 0.3 85 0.0 9 4   101.66     LegendNANA
08:00 3.3 1.1 86 0.0 9 2   101.67     LegendNANA
09:00 3.6 1.4 85 0.0 9 3   101.67     LegendNANA
10:00 4.0 1.4 83 0.0 8 1   101.72     LegendNANA
11:00 4.2 1.8 85 0.0 0 1   101.75     LegendNANA
12:00 4.4 1.1 79 0.0 11 3   101.74     LegendNANA
13:00 4.5 1.8 83 0.0 9 3   101.74     LegendNANA
14:00 4.5 1.7 82 0.0 8 4   101.72     LegendNANA
15:00 4.5 2.0 84 0.0 7 3   101.73     LegendNANA
16:00 4.2 2.0 86 0.0 7 3   101.74     LegendNANA
17:00 4.1 2.1 87 0.0 9 4   101.73     LegendNANA
18:00 3.5 1.6 87 0.0 6 1   101.69     LegendNANA
19:00 3.1 1.5 89 0.0 0 1   101.74     LegendNANA
20:00 4.1 2.2 88 0.0 0 1   101.73     LegendNANA
21:00 4.7 2.9 88 0.0 9 2   101.66     LegendNANA
22:00 4.6 2.6 87 0.0 9 4   101.70     LegendNANA
23:00 4.6 2.9 89 0.0 4 2   101.70     LegendNANA

Notes on Data Quality.

Legend

  • E = Estimated
  • M = Missing
  • NA = Not Available*
  • [empty] = Indicates an unobserved value
Date modified: